RSC33MY GCLA-GCXO

Flight info

Callsign RSC33MY
Flight time N/A
Altitude 13000
Route TFN
Aircraft AT76/M-SDFGIRY/S

Departure

Time N/A
Airport La Palma Airport (GCLA)

Arrival

Time 2026-04-23 20:14
Airport Tenerife Norte-Ciudad de La Laguna Airport (GCXO)
Time Latitude Longitude Altitude Speed Heading
2026-04-23 19:55 28.45052 -17.26006 13097 ft 311 kts 84°
2026-04-23 19:55 28.45265 -17.23653 13102 ft 311 kts 83°
2026-04-23 19:55 28.45489 -17.21210 13106 ft 311 kts 83°
2026-04-23 19:56 28.45710 -17.18764 13108 ft 311 kts 83°
2026-04-23 19:56 28.45929 -17.16349 13103 ft 311 kts 83°
2026-04-23 19:56 28.46149 -17.13907 13103 ft 311 kts 84°
2026-04-23 19:56 28.46370 -17.11456 13107 ft 312 kts 83°
2026-04-23 19:57 28.46591 -17.09005 13107 ft 311 kts 83°
2026-04-23 19:57 28.46809 -17.06559 13111 ft 312 kts 83°
2026-04-23 19:57 28.47030 -17.04106 13112 ft 312 kts 83°
2026-04-23 19:57 28.47248 -17.01657 13109 ft 312 kts 84°
2026-04-23 19:58 28.47467 -16.99211 13113 ft 312 kts 84°
2026-04-23 19:58 28.47683 -16.96787 13116 ft 312 kts 84°
2026-04-23 19:58 28.47900 -16.94341 13115 ft 312 kts 84°
2026-04-23 19:58 28.48119 -16.91886 13113 ft 312 kts 84°
2026-04-23 19:59 28.48334 -16.89436 13112 ft 312 kts 84°
2026-04-23 19:59 28.48551 -16.86983 13116 ft 312 kts 84°
2026-04-23 19:59 28.48767 -16.84531 13118 ft 312 kts 84°
2026-04-23 19:59 28.48983 -16.82078 13116 ft 312 kts 84°
2026-04-23 20:00 28.49199 -16.79622 13119 ft 312 kts 84°
2026-04-23 20:00 28.49413 -16.77168 13120 ft 312 kts 84°
2026-04-23 20:00 28.49624 -16.74745 13114 ft 312 kts 84°
2026-04-23 20:00 28.49839 -16.72297 13119 ft 312 kts 84°
2026-04-23 20:01 28.50051 -16.69837 13122 ft 312 kts 84°
2026-04-23 20:01 28.50266 -16.67384 13124 ft 312 kts 84°
2026-04-23 20:01 28.50477 -16.64927 13129 ft 312 kts 84°
2026-04-23 20:01 28.50689 -16.62473 13126 ft 312 kts 84°
2026-04-23 20:02 28.50902 -16.60015 13128 ft 312 kts 84°
2026-04-23 20:02 28.51114 -16.57556 13129 ft 312 kts 84°
2026-04-23 20:02 28.51326 -16.55100 13129 ft 312 kts 84°
2026-04-23 20:02 28.51534 -16.52639 13128 ft 313 kts 84°
2026-04-23 20:03 28.51742 -16.50215 13127 ft 313 kts 84°
2026-04-23 20:03 28.51953 -16.47754 13129 ft 313 kts 84°
2026-04-23 20:03 28.52162 -16.45290 13127 ft 313 kts 84°
2026-04-23 20:03 28.52372 -16.42834 13131 ft 313 kts 84°
2026-04-23 20:04 28.52579 -16.40368 13136 ft 313 kts 84°
2026-04-23 20:04 28.52789 -16.37906 13130 ft 313 kts 84°
2026-04-23 20:04 28.52996 -16.35442 13131 ft 314 kts 84°
2026-04-23 20:04 28.53204 -16.32972 13134 ft 310 kts 84°
2026-04-23 20:05 28.53335 -16.31375 13137 ft 303 kts 84°
2026-04-23 20:05 28.53432 -16.28236 12624 ft 304 kts 101°
2026-04-23 20:05 28.52680 -16.25974 12073 ft 308 kts 118°
2026-04-23 20:05 28.51517 -16.23944 11485 ft 306 kts 131°
2026-04-23 20:06 28.50088 -16.22162 10948 ft 305 kts 136°
2026-04-23 20:06 28.48610 -16.20453 10408 ft 294 kts 136°
2026-04-23 20:06 28.47247 -16.18855 9902 ft 271 kts 135°
2026-04-23 20:06 28.46012 -16.17326 9393 ft 254 kts 133°
2026-04-23 20:07 28.44851 -16.15857 8913 ft 252 kts 133°
2026-04-23 20:07 28.43653 -16.14355 8433 ft 260 kts 133°
2026-04-23 20:07 28.42444 -16.12838 7962 ft 265 kts 133°
2026-04-23 20:07 28.41188 -16.11320 7245 ft 258 kts 135°
2026-04-23 20:08 28.39841 -16.10157 6779 ft 234 kts 161°
2026-04-23 20:08 28.38321 -16.10053 6469 ft 210 kts 200°
2026-04-23 20:08 28.37237 -16.10941 6224 ft 185 kts 243°
2026-04-23 20:08 28.37020 -16.12348 6019 ft 186 kts 287°
2026-04-23 20:09 28.37746 -16.13536 5813 ft 188 kts 322°
2026-04-23 20:09 28.38803 -16.14466 5590 ft 196 kts 322°
2026-04-23 20:09 28.39847 -16.15468 5369 ft 202 kts 318°
2026-04-23 20:09 28.40838 -16.16579 5147 ft 193 kts 314°
2026-04-23 20:10 28.41435 -16.17318 4997 ft 183 kts 312°
2026-04-23 20:10 28.42465 -16.18840 4665 ft 187 kts 306°
2026-04-23 20:10 28.43149 -16.20116 4439 ft 190 kts 301°
2026-04-23 20:10 28.43754 -16.21445 4224 ft 191 kts 299°
2026-04-23 20:11 28.44324 -16.22713 4023 ft 168 kts 300°
2026-04-23 20:11 28.44804 -16.23857 3787 ft 156 kts 297°
2026-04-23 20:11 28.45219 -16.24958 3564 ft 151 kts 296°
2026-04-23 20:11 28.45584 -16.26027 3382 ft 134 kts 295°
2026-04-23 20:12 28.45879 -16.26945 3176 ft 115 kts 293°
2026-04-23 20:12 28.46121 -16.27773 2929 ft 108 kts 294°
2026-04-23 20:12 28.46400 -16.28600 2779 ft 114 kts 295°
2026-04-23 20:12 28.46691 -16.29437 2642 ft 113 kts 294°
2026-04-23 20:13 28.46970 -16.30263 2490 ft 111 kts 294°
2026-04-23 20:13 28.47231 -16.31067 2350 ft 106 kts 294°
2026-04-23 20:13 28.47485 -16.31822 2203 ft 102 kts 293°
2026-04-23 20:13 28.47733 -16.32561 2054 ft 97 kts 292°
2026-04-23 20:14 28.47957 -16.33217 2022 ft 67 kts 289°
2026-04-23 20:14 28.48092 -16.33630 2034 ft 44 kts 293°
2026-04-23 20:14 28.48184 -16.33906 2039 ft 31 kts 291°
2026-04-23 20:14 28.48255 -16.34096 2042 ft 21 kts 308°
2026-04-23 20:15 28.48319 -16.34162 2047 ft 8 kts 319°
2026-04-23 20:15 28.48365 -16.34206 2045 ft 10 kts 321°
2026-04-23 20:15 28.48405 -16.34246 2044 ft 7 kts 315°
2026-04-23 20:15 28.48428 -16.34295 2044 ft 9 kts 295°
2026-04-23 20:16 28.48458 -16.34294 2043 ft 4 kts 21°
2026-04-23 20:16 28.48473 -16.34287 2043 ft 2 kts 21°
2026-04-23 20:16 28.48482 -16.34283 2045 ft 3 kts 21°
2026-04-23 20:16 28.48506 -16.34273 2046 ft 0 kts 20°